Project,Study,Ord_Occ,Event_Num,Cast_ID,Date_Time_UTC,Date_Time_PST,Lat_Dec,Lon_Dec,Sta_ID,Line,Sta,Depth,Pressure,PrQ,Temp1,Temp1Q,Temp2,Temp2Q,TempAve,Salt1,Salt1Q,Salt1_Corr,Salt2,Salt2Q,Salt2_Corr,SaltAve_Corr,Ox1,Ox1Q,Ox1_CruiseCorr,Ox1_StaCorr,Ox2,Ox2Q,Ox2_CruiseCorr,Ox2_StaCorr,OxAve_StaCorr,Ox1uM,Ox1uM_CruiseCorr,Ox1uM_StaCorr,Ox2uM,Ox2uM_CruiseCorr,Ox2uM_StaCorr,OxAveuM_StaCorr,FluorV,FluorQ,EstChl_CruiseCorr,EstChl_StaCorr,ISUSV,ISUSQ,EstNO3_CruiseCorr,EstNO3_StaCorr,SigThetaTS1,SigThetaTS1Q,SigThetaTS2,SigThetaTS2Q,BAT,XMiss,TransQ,pH,pHQ,SPAR,SPARQ,PAR,PARQ,PoT1,PoT2,DynHt,SVA,OxSat1,OxSat2,BTL_Depth,BTL_Temp,SaltB,OxB,OxBuM,Chl-a,Phaeo,NO3,NO2,NH4,PO4,SIL
CalCOFI,2007SR,041,43,2007_041d,20-Jul-2020 13:50:17,20-Jul-2020 05:50:17,32.98980,-120.34969,086.7 060.0,086.7,060.0,1.000,1.007,,17.1404,,17.1405,,17.1405,33.6517,,33.6519,33.6519,,33.6535,33.6527,5.4621,,5.6896,5.6301,4.1353,,5.9310,4.4977,5.0639,238.114,248.0791,214.9507,180.277,416.8480,178.0610,196.5059,0.0740,,0.4453,0.2858,-99.0,,-99.0,-99.0,24.4465,,24.4466,,0.7479,82.9465,,8.178,,8.5692E+01,,3.8865E+00,,17.1403,17.1404,-0.0026,,99.232,75.129,,,,,,,,,,,,
CalCOFI,2007SR,041,43,2007_041d,20-Jul-2020 13:50:29,20-Jul-2020 05:50:29,32.98980,-120.34971,086.7 060.0,086.7,060.0,2.000,2.014,,17.1409,,17.1413,,17.1411,33.6516,,33.6518,33.6519,,33.6535,33.6527,5.4576,,5.6849,5.6255,4.1391,,5.9401,4.5061,5.0658,237.922,247.8787,214.7888,180.440,416.3784,178.3840,196.5864,0.0788,,0.5018,0.3095,-99.0,,-99.0,-99.0,24.4463,,24.4464,,0.7421,83.0662,,8.179,,8.5692E+01,,3.2999E+00,,17.1406,17.1410,0.0038,,99.153,75.198,2,17.136,33.6495,5.707,249.15,0.312,0.114,0.0,0.00,0.00,0.18,1.06
CalCOFI,2007SR,041,43,2007_041d,20-Jul-2020 13:50:39,20-Jul-2020 05:50:39,32.98980,-120.34972,086.7 060.0,086.7,060.0,3.000,3.021,,17.1413,,17.1416,,17.1415,33.6515,,33.6517,33.6519,,33.6535,33.6526,5.4519,,5.6790,5.6196,4.1407,,5.9439,4.5096,5.0646,237.670,247.6156,214.5765,180.509,415.7621,178.5207,196.5486,0.0790,,0.5041,0.3105,-99.0,,-99.0,-99.0,24.4462,,24.4464,,0.7404,83.1023,,8.179,,8.5692E+01,,2.8810E+00,,17.1408,17.1411,0.0092,,99.048,75.227,,,,,,,,,,,,
CalCOFI,2007SR,041,43,2007_041d,20-Jul-2020 13:50:42,20-Jul-2020 05:50:42,32.98982,-120.34972,086.7 060.0,086.7,060.0,4.000,4.028,,17.1411,,17.1412,,17.1412,33.6515,,33.6517,33.6519,,33.6535,33.6526,5.4452,,5.6720,5.6127,4.1437,,5.9511,4.5163,5.0645,237.378,247.3108,214.3304,180.642,415.0479,178.7842,196.5573,0.0795,,0.5100,0.3128,-99.0,,-99.0,-99.0,24.4463,,24.4466,,0.7424,83.0608,,8.179,,8.5692E+01,,2.5155E+00,,17.1404,17.1406,0.0127,,98.926,75.282,,,,,,,,,,,,
CalCOFI,2007SR,041,43,2007_041d,20-Jul-2020 13:50:44,20-Jul-2020 05:50:44,32.98980,-120.34972,086.7 060.0,086.7,060.0,5.000,5.036,,17.1414,,17.1416,,17.1415,33.6515,,33.6517,33.6518,,33.6534,33.6526,5.4446,,5.6714,5.6121,4.1426,,5.9484,4.5138,5.0630,237.352,247.2837,214.3084,180.595,414.9843,178.6911,196.4998,0.0808,,0.5253,0.3189,-99.0,,-99.0,-99.0,24.4463,,24.4465,,0.7410,83.0897,,8.178,,8.5692E+01,,2.3340E+00,,17.1406,17.1407,0.0162,,98.916,75.263,,,,,,,,,,,,
CalCOFI,2007SR,041,43,2007_041d,20-Jul-2020 13:50:46,20-Jul-2020 05:50:46,32.98981,-120.34972,086.7 060.0,086.7,060.0,6.000,6.043,,17.1416,,17.1417,,17.1417,33.6515,,33.6517,33.6519,,33.6535,33.6526,5.4531,,5.6802,5.6208,4.1459,,5.9563,4.5211,5.0710,237.722,247.6699,214.6203,180.737,415.8893,178.9724,196.7964,0.0792,,0.5065,0.3114,-99.0,,-99.0,-99.0,24.4462,,24.4465,,0.7431,83.0453,,8.179,,8.5692E+01,,2.1379E+00,,17.1406,17.1407,0.0197,,99.071,75.323,,,,,,,,,,,,
CalCOFI,2007SR,041,43,2007_041d,20-Jul-2020 13:50:49,20-Jul-2020 05:50:49,32.98982,-120.34972,086.7 060.0,086.7,060.0,7.000,7.050,,17.1420,,17.1422,,17.1421,33.6515,,33.6517,33.6519,,33.6535,33.6526,5.4459,,5.6727,5.6134,4.1461,,5.9568,4.5216,5.0675,237.411,247.3452,214.3582,180.748,415.1286,178.9942,196.6762,0.0780,,0.4924,0.3057,-99.0,,-99.0,-99.0,24.4462,,24.4464,,0.7668,82.5552,,8.177,,8.5692E+01,,1.9591E+00,,17.1409,17.1410,0.0232,,98.942,75.328,,,,,,,,,,,,
CalCOFI,2007SR,041,43,2007_041d,20-Jul-2020 13:50:50,20-Jul-2020 05:50:50,32.98982,-120.34972,086.7 060.0,086.7,060.0,8.000,8.057,,17.1426,,17.1424,,17.1425,33.6515,,33.6517,33.6518,,33.6534,33.6526,5.4504,,5.6774,5.6181,4.1469,,5.9587,4.5233,5.0707,237.605,247.5478,214.5217,180.781,415.6031,179.0596,196.7907,0.0823,,0.5430,0.3257,-99.0,,-99.0,-99.0,24.4461,,24.4464,,0.7782,82.3235,,8.177,,8.5692E+01,,1.8191E+00,,17.1412,17.1411,0.0267,,99.024,75.342,,,,,,,,,,,,
CalCOFI,2007SR,041,43,2007_041d,20-Jul-2020 13:50:52,20-Jul-2020 05:50:52,32.98982,-120.34972,086.7 060.0,086.7,060.0,9.000,9.064,,17.1438,,17.1438,,17.1438,33.6515,,33.6517,33.6520,,33.6536,33.6527,5.4423,,5.6690,5.6097,4.1500,,5.9661,4.5302,5.0700,237.254,247.1814,214.2258,180.916,414.7446,179.3271,196.7765,0.0766,,0.4759,0.2989,-99.0,,-99.0,-99.0,24.4458,,24.4462,,0.7415,83.0785,,8.177,,8.5692E+01,,1.6813E+00,,17.1424,17.1423,0.0302,,98.880,75.400,,,,,,,,,,,,
CalCOFI,2007SR,041,43,2007_041d,20-Jul-2020 13:50:55,20-Jul-2020 05:50:55,32.98982,-120.34972,086.7 060.0,086.7,060.0,10.000,10.071,,17.1434,,17.1434,,17.1434,33.6517,,33.6519,33.6521,,33.6537,33.6528,5.4464,,5.6732,5.6139,4.1515,,5.9697,4.5335,5.0737,237.431,247.3661,214.3750,180.983,415.1775,179.4598,196.9174,0.0798,,0.5136,0.3142,-99.0,,-99.0,-99.0,24.4461,,24.4464,,0.7470,82.9657,,8.176,,8.5692E+01,,1.5502E+00,,17.1418,17.1417,0.0337,,98.953,75.428,10,17.133,33.6519,5.652,246.75,0.327,0.107,0.0,0.00,0.10,0.19,0.96
CalCOFI,2007SR,041,43,2007_041d,20-Jul-2020 13:50:56,20-Jul-2020 05:50:56,32.98982,-120.34972,086.7 060.0,086.7,060.0,11.000,11.078,,17.1430,,17.1430,,17.1430,33.6517,,33.6519,33.6521,,33.6537,33.6528,5.4422,,5.6689,5.6096,4.1520,,5.9709,4.5346,5.0721,237.249,247.1761,214.2216,181.003,414.7324,179.4994,196.8605,0.0804,,0.5206,0.3170,-99.0,,-99.0,-99.0,24.4463,,24.4466,,0.7418,83.0725,,8.176,,8.5692E+01,,1.4481E+00,,17.1411,17.1412,0.0372,,98.876,75.435,,,,,,,,,,,,
CalCOFI,2007SR,041,43,2007_041d,20-Jul-2020 13:50:59,20-Jul-2020 05:50:59,32.98982,-120.34973,086.7 060.0,086.7,060.0,12.000,12.086,,17.1425,,17.1428,,17.1427,33.6518,,33.6520,33.6522,,33.6538,33.6529,5.4392,,5.6657,5.6065,4.1539,,5.9754,4.5388,5.0727,237.116,247.0373,214.1095,181.086,414.4071,179.6639,196.8867,0.0770,,0.4806,0.3008,-99.0,,-99.0,-99.0,24.4465,,24.4467,,0.7393,83.1252,,8.176,,8.5692E+01,,1.3859E+00,,17.1405,17.1408,0.0407,,98.820,75.470,,,,,,,,,,,,
CalCOFI,2007SR,041,43,2007_041d,20-Jul-2020 13:51:01,20-Jul-2020 05:51:01,32.98982,-120.34972,086.7 060.0,086.7,060.0,13.000,13.093,,17.1420,,17.1424,,17.1422,33.6518,,33.6520,33.6520,,33.6536,33.6528,5.4432,,5.6699,5.6106,4.1586,,5.9866,4.5491,5.0799,237.291,247.2200,214.2570,181.291,414.8351,180.0701,197.1636,0.0768,,0.4783,0.2998,-99.0,,-99.0,-99.0,24.4467,,24.4467,,0.7388,83.1356,,8.176,,8.5692E+01,,1.3224E+00,,17.1398,17.1402,0.0442,,98.892,75.554,,,,,,,,,,,,
CalCOFI,2007SR,041,43,2007_041d,20-Jul-2020 13:51:03,20-Jul-2020 05:51:03,32.98982,-120.34972,086.7 060.0,086.7,060.0,14.000,14.100,,17.1410,,17.1398,,17.1404,33.6518,,33.6520,33.6520,,33.6536,33.6528,5.4488,,5.6758,5.6164,4.1578,,5.9847,4.5474,5.0819,237.535,247.4747,214.4627,181.255,415.4319,179.9987,197.2307,0.0824,,0.5442,0.3262,-99.0,,-99.0,-99.0,24.4469,,24.4474,,0.7409,83.0917,,8.176,,8.5692E+01,,1.2749E+00,,17.1387,17.1375,0.0477,,98.992,75.536,,,,,,,,,,,,
CalCOFI,2007SR,041,43,2007_041d,20-Jul-2020 13:51:04,20-Jul-2020 05:51:04,32.98982,-120.34972,086.7 060.0,086.7,060.0,15.000,15.107,,17.1410,,17.1411,,17.1411,33.6517,,33.6519,33.6522,,33.6538,33.6529,5.4420,,5.6686,5.6094,4.1582,,5.9857,4.5482,5.0788,237.240,247.1667,214.2141,181.273,414.7104,180.0344,197.1243,0.0821,,0.5406,0.3248,-99.0,,-99.0,-99.0,24.4469,,24.4472,,0.7375,83.1636,,8.176,,8.5692E+01,,1.2360E+00,,17.1386,17.1386,0.0512,,98.869,75.545,,,,,,,,,,,,
CalCOFI,2007SR,041,43,2007_041d,20-Jul-2020 13:51:07,20-Jul-2020 05:51:07,32.98982,-120.34973,086.7 060.0,086.7,060.0,16.000,16.114,,17.1397,,17.1407,,17.1402,33.6518,,33.6520,33.6520,,33.6536,33.6528,5.4446,,5.6714,5.6121,4.1588,,5.9871,4.5496,5.0809,237.354,247.2857,214.3101,181.298,414.9892,180.0839,197.1970,0.0778,,0.4900,0.3047,-99.0,,-99.0,-99.0,24.4473,,24.4472,,0.7395,83.1200,,8.175,,8.5692E+01,,1.2044E+00,,17.1371,17.1380,0.0547,,98.914,75.555,,,,,,,,,,,,
CalCOFI,2007SR,041,43,2007_041d,20-Jul-2020 13:51:09,20-Jul-2020 05:51:09,32.98982,-120.34974,086.7 060.0,086.7,060.0,17.000,17.121,,17.1401,,17.1400,,17.1401,33.6520,,33.6522,33.6521,,33.6537,33.6530,5.4372,,5.6636,5.6045,4.1608,,5.9919,4.5540,5.0793,237.032,246.9496,214.0387,181.387,414.2016,180.2603,197.1495,0.0788,,0.5018,0.3095,-99.0,,-99.0,-99.0,24.4474,,24.4475,,0.7389,83.1326,,8.175,,8.5692E+01,,1.1661E+00,,17.1372,17.1372,0.0582,,98.781,75.591,,,,,,,,,,,,
CalCOFI,2007SR,041,43,2007_041d,20-Jul-2020 13:51:11,20-Jul-2020 05:51:11,32.98982,-120.34974,086.7 060.0,086.7,060.0,18.000,18.129,,17.1400,,17.1396,,17.1398,33.6521,,33.6523,33.6523,,33.6539,33.6531,5.4494,,5.6764,5.6170,4.1615,,5.9935,4.5555,5.0863,237.561,247.5018,214.4846,181.417,415.4955,180.3197,197.4022,0.0793,,0.5077,0.3119,-99.0,,-99.0,-99.0,24.4475,,24.4478,,0.7390,83.1317,,8.175,,8.5692E+01,,1.1271E+00,,17.1370,17.1366,0.0617,,99.001,75.603,,,,,,,,,,,,
CalCOFI,2007SR,041,43,2007_041d,20-Jul-2020 13:51:12,20-Jul-2020 05:51:12,32.98982,-120.34974,086.7 060.0,086.7,060.0,19.000,19.136,,17.1454,,17.1427,,17.1441,33.6517,,33.6519,33.6523,,33.6539,33.6529,5.4419,,5.6685,5.6093,4.1637,,5.9988,4.5604,5.0849,237.236,247.1626,214.2107,181.515,414.7006,180.5139,197.3623,0.0800,,0.5159,0.3152,-99.0,,-99.0,-99.0,24.4460,,24.4471,,0.7393,83.1259,,8.175,,8.5692E+01,,1.0909E+00,,17.1422,17.1396,0.0652,,98.875,75.648,,,,,,,,,,,,
CalCOFI,2007SR,041,43,2007_041d,20-Jul-2020 13:51:15,20-Jul-2020 05:51:15,32.98982,-120.34974,086.7 060.0,086.7,060.0,20.000,20.143,,17.1368,,17.1417,,17.1393,33.6522,,33.6524,33.6519,,33.6535,33.6530,5.4398,,5.6663,5.6071,4.1646,,6.0009,4.5624,5.0848,237.146,247.0686,214.1348,181.553,414.4805,180.5892,197.3620,0.0791,,0.5053,0.3109,-99.0,,-99.0,-99.0,24.4484,,24.4471,,0.7397,83.1165,,8.175,,8.5692E+01,,1.0672E+00,,17.1335,17.1384,0.0687,,98.822,75.662,20,17.105,33.6508,5.675,247.76,0.397,0.135,0.0,0.00,0.06,0.18,1.03
CalCOFI,2007SR,041,43,2007_041d,20-Jul-2020 13:51:17,20-Jul-2020 05:51:17,32.98982,-120.34974,086.7 060.0,086.7,060.0,21.000,21.150,,17.1084,,17.1133,,17.1109,33.6519,,33.6521,33.6511,,33.6527,33.6524,5.4469,,5.6738,5.6145,4.1674,,6.0076,4.5685,5.0915,237.454,247.3901,214.3944,181.672,415.2338,180.8249,197.6097,0.0833,,0.5547,0.3302,-99.0,,-99.0,-99.0,24.4550,,24.4532,,0.7403,83.1029,,8.176,,8.5692E+01,,1.0310E+00,,17.1049,17.1098,0.0722,,98.897,75.671,,,,,,,,,,,,
CalCOFI,2007SR,041,43,2007_041d,20-Jul-2020 13:51:19,20-Jul-2020 05:51:19,32.98982,-120.34974,086.7 060.0,086.7,060.0,22.000,22.157,,17.0873,,17.0885,,17.0879,33.6524,,33.6526,33.6529,,33.6545,33.6536,5.4510,,5.6780,5.6187,4.1704,,6.0148,4.5752,5.0970,237.628,247.5718,214.5411,181.802,415.6594,181.0825,197.8118,0.0894,,0.6265,0.3559,-99.0,,-99.0,-99.0,24.4604,,24.4605,,0.7402,83.1066,,8.176,,8.5692E+01,,1.0132E+00,,17.0836,17.0849,0.0757,,98.930,75.690,,,,,,,,,,,,
CalCOFI,2007SR,041,43,2007_041d,20-Jul-2020 13:51:21,20-Jul-2020 05:51:21,32.98982,-120.34974,086.7 060.0,086.7,060.0,23.000,23.165,,17.0807,,17.0805,,17.0806,33.6537,,33.6539,33.6538,,33.6554,33.6547,5.4500,,5.6770,5.6177,4.1746,,6.0248,4.5844,5.1011,237.584,247.5258,214.5040,181.987,415.5517,181.4491,197.9766,0.0885,,0.6159,0.3523,-99.0,,-99.0,-99.0,24.4630,,24.4631,,0.7411,83.0875,,8.176,,8.5692E+01,,9.8502E-01,,17.0769,17.0767,0.0792,,98.900,75.756,,,,,,,,,,,,
CalCOFI,2007SR,041,43,2007_041d,20-Jul-2020 13:51:23,20-Jul-2020 05:51:23,32.98982,-120.34974,086.7 060.0,086.7,060.0,24.000,24.172,,17.0774,,17.0772,,17.0773,33.6534,,33.6536,33.6534,,33.6550,33.6543,5.4469,,5.6738,5.6145,4.1754,,6.0267,4.5862,5.1004,237.451,247.3870,214.3919,182.018,415.2264,181.5105,197.9512,0.0860,,0.5865,0.3419,-99.0,,-99.0,-99.0,24.4635,,24.4636,,0.7427,83.0532,,8.176,,8.5692E+01,,9.5040E-01,,17.0735,17.0732,0.0827,,98.838,75.764,,,,,,,,,,,,
CalCOFI,2007SR,041,43,2007_041d,20-Jul-2020 13:51:25,20-Jul-2020 05:51:25,32.98982,-120.34974,086.7 060.0,086.7,060.0,25.000,25.179,,17.0746,,17.0746,,17.0746,33.6536,,33.6538,33.6540,,33.6556,33.6547,5.4514,,5.6785,5.6191,4.1760,,6.0282,4.5875,5.1033,237.646,247.5906,214.5562,182.048,415.7034,181.5699,198.0631,0.0895,,0.6277,0.3563,-99.0,,-99.0,-99.0,24.4645,,24.4647,,0.7452,83.0029,,8.176,,8.5692E+01,,9.2900E-01,,17.0705,17.0705,0.0862,,98.914,75.773,,,,,,,,,,,,
CalCOFI,2007SR,041,43,2007_041d,20-Jul-2020 13:51:27,20-Jul-2020 05:51:27,32.98982,-120.34974,086.7 060.0,086.7,060.0,26.000,26.186,,17.0764,,17.0772,,17.0768,33.6533,,33.6535,33.6539,,33.6555,33.6545,5.4514,,5.6785,5.6191,4.1766,,6.0296,4.5888,5.1040,237.644,247.5885,214.5546,182.073,415.6985,181.6194,198.0870,0.0895,,0.6277,0.3563,-99.0,,-99.0,-99.0,24.4638,,24.4641,,0.7432,83.0435,,8.176,,8.5692E+01,,9.0616E-01,,17.0721,17.0729,0.0897,,98.917,75.787,,,,,,,,,,,,
CalCOFI,2007SR,041,43,2007_041d,20-Jul-2020 13:51:29,20-Jul-2020 05:51:29,32.98982,-120.34974,086.7 060.0,086.7,060.0,27.000,27.193,,17.0733,,17.0749,,17.0741,33.6537,,33.6539,33.6537,,33.6553,33.6546,5.4523,,5.6794,5.6200,4.1773,,6.0313,4.5904,5.1052,237.686,247.6323,214.5900,182.104,415.8012,181.6809,198.1355,0.0891,,0.6230,0.3547,-99.0,,-99.0,-99.0,24.4649,,24.4645,,0.7436,83.0362,,8.176,,8.5692E+01,,8.8378E-01,,17.0688,17.0705,0.0932,,98.929,75.797,,,,,,,,,,,,
CalCOFI,2007SR,041,43,2007_041d,20-Jul-2020 13:51:31,20-Jul-2020 05:51:31,32.98983,-120.34976,086.7 060.0,086.7,060.0,28.000,28.201,,17.0673,,17.0683,,17.0678,33.6535,,33.6537,33.6535,,33.6551,33.6544,5.4506,,5.6776,5.6183,4.1794,,6.0363,4.5950,5.1067,237.609,247.5519,214.5250,182.194,415.6129,181.8592,198.1921,0.0885,,0.6159,0.3523,-99.0,,-99.0,-99.0,24.4662,,24.4660,,0.7431,83.0467,,8.176,,8.5692E+01,,8.6393E-01,,17.0627,17.0637,0.0967,,98.885,75.825,,,,,,,,,,,,
CalCOFI,2007SR,041,43,2007_041d,20-Jul-2020 13:51:33,20-Jul-2020 05:51:33,32.98984,-120.34976,086.7 060.0,086.7,060.0,29.000,29.208,,17.0492,,17.0557,,17.0525,33.6528,,33.6530,33.6525,,33.6541,33.6536,5.4494,,5.6764,5.6170,4.1815,,6.0413,4.5996,5.1083,237.557,247.4977,214.4812,182.285,415.4857,182.0395,198.2604,0.0926,,0.6642,0.3682,-99.0,,-99.0,-99.0,24.4699,,24.4682,,0.7455,82.9958,,8.176,,8.5692E+01,,8.4176E-01,,17.0445,17.0509,0.1002,,98.829,75.844,,,,,,,,,,,,
CalCOFI,2007SR,041,43,2007_041d,20-Jul-2020 13:51:35,20-Jul-2020 05:51:35,32.98984,-120.34976,086.7 060.0,086.7,060.0,30.000,30.215,,17.0276,,17.0346,,17.0311,33.6530,,33.6532,33.6531,,33.6547,33.6540,5.4557,,5.6830,5.6235,4.1864,,6.0530,4.6105,5.1170,237.831,247.7837,214.7122,182.499,416.1559,182.4635,198.5879,0.0939,,0.6795,0.3730,-99.0,,-99.0,-99.0,24.4753,,24.4736,,0.7444,83.0186,,8.176,,8.5692E+01,,8.1907E-01,,17.0226,17.0297,0.1037,,98.902,75.903,30,16.927,,, ,,,,,,,
CalCOFI,2007SR,041,43,2007_041d,20-Jul-2020 13:51:37,20-Jul-2020 05:51:37,32.98984,-120.34976,086.7 060.0,086.7,060.0,31.000,31.222,,17.0209,,17.0244,,17.0227,33.6534,,33.6536,33.6537,,33.6553,33.6545,5.4556,,5.6829,5.6234,4.1848,,6.0492,4.6069,5.1152,237.826,247.7785,214.7079,182.430,416.1436,182.3268,198.5174,0.0986,,0.7349,0.3893,-99.0,,-99.0,-99.0,24.4772,,24.4766,,0.7465,82.9753,,8.176,,8.5692E+01,,8.0450E-01,,17.0159,17.0193,0.1071,,98.888,75.860,,,,,,,,,,,,
CalCOFI,2007SR,041,43,2007_041d,20-Jul-2020 13:51:39,20-Jul-2020 05:51:39,32.98983,-120.34976,086.7 060.0,086.7,060.0,32.000,32.230,,17.0138,,17.0170,,17.0154,33.6530,,33.6532,33.6529,,33.6545,33.6539,5.4526,,5.6797,5.6203,4.1879,,6.0566,4.6138,5.1171,237.696,247.6428,214.5984,182.562,415.8257,182.5883,198.5934,0.0976,,0.7231,0.3860,-99.0,,-99.0,-99.0,24.4786,,24.4778,,0.7475,82.9550,,8.176,,8.5692E+01,,7.8620E-01,,17.0086,17.0117,0.1106,,98.820,75.903,,,,,,,,,,,,
CalCOFI,2007SR,041,43,2007_041d,20-Jul-2020 13:51:41,20-Jul-2020 05:51:41,32.98983,-120.34976,086.7 060.0,086.7,060.0,33.000,33.237,,16.9894,,16.9939,,16.9917,33.6518,,33.6520,33.6520,,33.6536,33.6528,5.4534,,5.6806,5.6212,4.1914,,6.0649,4.6215,5.1214,237.729,247.6772,214.6262,182.714,415.9064,182.8895,198.7579,0.1065,,0.8279,0.4131,-99.0,,-99.0,-99.0,24.4835,,24.4825,,0.7474,82.9560,,8.176,,8.5692E+01,,7.6154E-01,,16.9840,16.9885,0.1141,,98.787,75.933,,,,,,,,,,,,
CalCOFI,2007SR,041,43,2007_041d,20-Jul-2020 13:51:43,20-Jul-2020 05:51:43,32.98984,-120.34976,086.7 060.0,086.7,060.0,34.000,34.244,,16.9427,,16.9463,,16.9445,33.6504,,33.6506,33.6491,,33.6507,33.6507,5.4607,,5.6882,5.6287,4.1953,,6.0742,4.6301,5.1294,238.046,248.0081,214.8934,182.882,416.6817,183.2223,199.0579,0.1146,,0.9234,0.4327,-99.0,,-99.0,-99.0,24.4934,,24.4916,,0.7549,82.8004,,8.176,,8.5692E+01,,7.5036E-01,,16.9372,16.9407,0.1176,,98.830,75.932,,,,,,,,,,,,
CalCOFI,2007SR,041,43,2007_041d,20-Jul-2020 13:51:45,20-Jul-2020 05:51:45,32.98984,-120.34976,086.7 060.0,086.7,060.0,35.000,35.252,,16.9161,,16.9169,,16.9165,33.6502,,33.6504,33.6500,,33.6516,33.6510,5.4649,,5.6926,5.6330,4.1950,,6.0735,4.6294,5.1312,238.228,248.1981,215.0468,182.869,417.1269,183.1966,199.1217,0.1195,,0.9811,0.4421,-99.0,,-99.0,-99.0,24.4996,,24.4992,,0.7530,82.8404,,8.176,,8.5692E+01,,7.3970E-01,,16.9104,16.9112,0.1210,,98.855,75.885,,,,,,,,,,,,
CalCOFI,2007SR,041,43,2007_041d,20-Jul-2020 13:51:48,20-Jul-2020 05:51:48,32.98982,-120.34976,086.7 060.0,086.7,060.0,36.000,36.259,,16.9133,,16.9130,,16.9132,33.6498,,33.6500,33.6507,,33.6523,33.6512,5.4631,,5.6907,5.6312,4.1997,,6.0847,4.6398,5.1355,238.147,248.1136,214.9785,183.074,416.9288,183.6027,199.2906,0.1211,,1.0000,0.4448,-99.0,,-99.0,-99.0,24.4999,,24.5006,,0.7552,82.7960,,8.176,,8.5692E+01,,7.2060E-01,,16.9074,16.9071,0.1245,,98.816,75.964,,,,,,,,,,,,
CalCOFI,2007SR,041,43,2007_041d,20-Jul-2020 13:51:50,20-Jul-2020 05:51:50,32.98982,-120.34976,086.7 060.0,086.7,060.0,37.000,37.266,,16.8707,,16.8765,,16.8736,33.6494,,33.6496,33.6492,,33.6508,33.6502,5.4612,,5.6887,5.6292,4.2036,,6.0941,4.6484,5.1388,238.065,248.0280,214.9094,183.240,416.7282,183.9316,199.4205,0.1211,,1.0000,0.4448,-99.0,,-99.0,-99.0,24.5096,,24.5081,,0.7568,82.7629,,8.177,,8.5692E+01,,7.0794E-01,,16.8647,16.8705,0.1279,,98.702,75.979,,,,,,,,,,,,
CalCOFI,2007SR,041,43,2007_041d,20-Jul-2020 13:51:51,20-Jul-2020 05:51:51,32.98984,-120.34976,086.7 060.0,086.7,060.0,38.000,38.273,,16.8481,,16.8507,,16.8494,33.6479,,33.6481,33.6472,,33.6488,33.6485,5.4705,,5.6984,5.6388,4.2053,,6.0981,4.6521,5.1455,238.468,248.4486,215.2490,183.315,417.7139,184.0802,199.6646,0.1311,,1.1179,0.4575,-99.0,,-99.0,-99.0,24.5138,,24.5126,,0.7576,82.7450,,8.177,,8.5692E+01,,6.9986E-01,,16.8419,16.8445,0.1314,,98.825,75.972,,,,,,,,,,,,
CalCOFI,2007SR,041,43,2007_041d,20-Jul-2020 13:51:53,20-Jul-2020 05:51:53,32.98984,-120.34976,086.7 060.0,086.7,060.0,39.000,39.281,,16.8241,,16.8253,,16.8247,33.6492,,33.6494,33.6504,,33.6520,33.6507,5.4620,,5.6895,5.6300,4.2056,,6.0988,4.6528,5.1414,238.097,248.0614,214.9363,183.329,416.8065,184.1080,199.5222,0.1416,,1.2418,0.4628,-99.0,,-99.0,-99.0,24.5204,,24.5211,,0.7574,82.7491,,8.175,,8.5692E+01,,6.8239E-01,,16.8177,16.8190,0.1348,,98.627,75.943,,,,,,,,,,,,
CalCOFI,2007SR,041,43,2007_041d,20-Jul-2020 13:51:56,20-Jul-2020 05:51:56,32.98982,-120.34976,086.7 060.0,086.7,060.0,40.000,40.288,,16.8003,,16.7888,,16.7946,33.6491,,33.6493,33.6462,,33.6478,33.6486,5.4042,,5.6291,5.5704,4.2164,,6.1246,4.6766,5.1235,235.575,245.4286,212.8107,183.798,410.6380,185.0372,198.9240,0.1681,,1.5548,0.4399,-99.0,,-99.0,-99.0,24.5260,,24.5265,,0.7700,82.4893,,8.172,,8.5692E+01,,6.6074E-01,,16.7939,16.7823,0.1383,,97.538,76.082,40,16.466,33.6530,,247.88,0.430,0.256,0.15,0.035,0.27,0.22,1.34
CalCOFI,2007SR,041,43,2007_041d,20-Jul-2020 13:51:58,20-Jul-2020 05:51:58,32.98982,-120.34976,086.7 060.0,086.7,060.0,41.000,41.295,,16.5330,,16.5550,,16.5440,33.6498,,33.6500,33.6438,,33.6454,33.6477,5.4113,,5.6366,5.5778,4.2429,,6.1879,4.7351,5.1565,235.869,245.7355,213.0585,184.942,411.3571,187.3038,200.1812,0.1826,,1.7263,0.4054,-99.0,,-99.0,-99.0,24.5887,,24.5790,,0.7743,82.4001,,8.172,,8.5692E+01,,6.4649E-01,,16.5264,16.5484,0.1417,,97.161,76.212,,,,,,,,,,,,
CalCOFI,2007SR,041,43,2007_041d,20-Jul-2020 13:52:00,20-Jul-2020 05:52:00,32.98984,-120.34976,086.7 060.0,086.7,060.0,42.000,42.303,,16.3239,,16.3332,,16.3286,33.6350,,33.6352,33.6270,,33.6286,33.6319,5.4303,,5.6564,5.5973,4.2573,,6.2223,4.7669,5.1821,236.687,246.5895,213.7480,185.565,413.3578,188.5382,201.1431,0.1789,,1.6825,0.4156,-99.0,,-99.0,-99.0,24.6255,,24.6172,,0.7703,82.4838,,8.169,,8.5692E+01,,6.3412E-01,,16.3172,16.3265,0.1451,,97.097,76.134,,,,,,,,,,,,
CalCOFI,2007SR,041,43,2007_041d,20-Jul-2020 13:52:01,20-Jul-2020 05:52:01,32.98984,-120.34976,086.7 060.0,086.7,060.0,43.000,43.310,,16.1885,,16.1992,,16.1939,33.6303,,33.6305,33.6289,,33.6305,33.6305,5.4250,,5.6509,5.5919,4.2687,,6.2495,4.7920,5.1920,236.451,246.3431,213.5491,186.056,412.7806,189.5110,201.5301,0.1729,,1.6116,0.4302,-99.0,,-99.0,-99.0,24.6529,,24.6493,,0.7657,82.5791,,8.166,,8.5692E+01,,6.3384E-01,,16.1817,16.1924,0.1484,,96.744,76.140,,,,,,,,,,,,
CalCOFI,2007SR,041,43,2007_041d,20-Jul-2020 13:52:03,20-Jul-2020 05:52:03,32.98984,-120.34976,086.7 060.0,086.7,060.0,44.000,44.317,,16.1214,,16.1130,,16.1172,33.6253,,33.6255,33.6240,,33.6256,33.6256,5.4078,,5.6329,5.5742,4.2745,,6.2633,4.8048,5.1895,235.697,245.5560,212.9136,186.302,410.9364,189.9984,201.4560,0.1691,,1.5667,0.4380,-99.0,,-99.0,-99.0,24.6643,,24.6652,,0.7626,82.6411,,8.161,,8.5692E+01,,6.2110E-01,,16.1145,16.1061,0.1517,,96.308,76.111,,,,,,,,,,,,
CalCOFI,2007SR,041,43,2007_041d,20-Jul-2020 13:52:06,20-Jul-2020 05:52:06,32.98983,-120.34977,086.7 060.0,086.7,060.0,45.000,45.324,,15.9843,,16.0129,,15.9986,33.6205,,33.6207,33.6145,,33.6161,33.6184,5.2504,,5.4684,5.4119,4.3009,,6.3263,4.8630,5.1375,228.832,238.3896,207.1276,187.451,394.1456,192.2749,199.7013,0.1602,,1.4615,0.4521,-99.0,,-99.0,-99.0,24.6918,,24.6807,,0.7586,82.7245,,8.158,,8.5692E+01,,6.0209E-01,,15.9772,16.0058,0.1550,,93.252,76.427,,,,,,,,,,,,
CalCOFI,2007SR,041,43,2007_041d,20-Jul-2020 13:52:08,20-Jul-2020 05:52:08,32.98982,-120.34976,086.7 060.0,086.7,060.0,46.000,46.332,,15.6800,,15.7353,,15.7077,33.5898,,33.5900,33.5755,,33.5771,33.5836,5.1666,,5.3809,5.3256,4.3512,,6.4464,4.9740,5.1498,225.171,234.5679,204.0420,189.638,385.1913,196.6081,200.3251,0.1450,,1.2820,0.4628,-99.0,,-99.0,-99.0,24.7364,,24.7131,,0.7512,82.8777,,8.153,,8.5692E+01,,5.8364E-01,,15.6729,15.7281,0.1582,,91.198,76.882,,,,,,,,,,,,
CalCOFI,2007SR,041,43,2007_041d,20-Jul-2020 13:52:09,20-Jul-2020 05:52:09,32.98982,-120.34976,086.7 060.0,086.7,060.0,47.000,47.339,,14.7207,,14.8301,,14.7754,33.5315,,33.5317,33.5065,,33.5081,33.5199,5.1726,,5.3871,5.3317,4.4256,,6.6240,5.1381,5.2349,225.398,234.8049,204.2333,192.853,385.7465,202.9780,203.6057,0.1334,,1.1451,0.4593,-99.0,,-99.0,-99.0,24.9013,,24.8586,,0.7364,83.1852,,8.143,,8.5692E+01,,5.6955E-01,,14.7137,14.8231,0.1614,,89.551,76.771,,,,,,,,,,,,
CalCOFI,2007SR,041,43,2007_041d,20-Jul-2020 13:52:11,20-Jul-2020 05:52:11,32.98982,-120.34976,086.7 060.0,086.7,060.0,48.000,48.346,,14.1183,,14.1694,,14.1439,33.5338,,33.5340,33.5205,,33.5221,33.5281,5.0927,,5.3037,5.2494,4.4834,,6.7620,5.2656,5.2575,221.888,231.1408,201.2750,195.342,377.1616,207.9095,204.5923,0.1299,,1.1038,0.4564,-99.0,,-99.0,-99.0,25.0309,,25.0099,,0.7280,83.3592,,8.124,,8.5692E+01,,5.5482E-01,,14.1114,14.1625,0.1644,,87.105,76.755,,,,,,,,,,,,
CalCOFI,2007SR,041,43,2007_041d,20-Jul-2020 13:52:13,20-Jul-2020 05:52:13,32.98982,-120.34976,086.7 060.0,086.7,060.0,49.000,49.354,,13.6159,,13.6943,,13.6551,33.5110,,33.5112,33.4995,,33.5011,33.5062,5.0867,,5.2974,5.2432,4.5123,,6.8310,5.3294,5.2863,221.605,230.8454,201.0365,196.587,376.4694,210.3762,205.7064,0.1235,,1.0283,0.4485,-99.0,,-99.0,-99.0,25.1169,,25.0920,,0.7179,83.5717,,8.103,,8.5692E+01,,5.5113E-01,,13.6090,13.6874,0.1673,,86.105,76.499,,,,,,,,,,,,